Regional Weather Roundup
Issued by NWS

Home | Current Version | Previous Version | Text Only | Print | Product List | Glossary Off
Versions: 1 2 3 4 5 6 7 8 9 10 11 12 13 14 15 16 17 18 19 20 21 22 23 24 25 26 27

000
ASUS45 KBOU 210007
RWRCO

WEATHER ROUNDUP FOR COLORADO
NATIONAL WEATHER SERVICE DENVER/BOULDER CO
500 PM MST FRI JAN 20 2017

NOTE: "FAIR" INDICATES FEW OR NO CLOUDS BELOW 12000 FEET WITH NO
SIGNIFICANT WEATHER AND/OR OBSTRUCTIONS TO VISIBILITY.

COZ001>005-013-030-031-210100-
...NORTHWEST COLORADO...

CITY           SKY/WX    TMP DP  RH WIND       PRES   REMARKS
CRAIG          CLOUDY    26  21  81 SE3       29.51F
HAYDEN         CLOUDY    25  21  86 S3        29.50F
MEEKER         CLOUDY    29  26  89 CALM      29.50S
MOUNT WERNER   NOT AVBL
STEAMBOAT SPGS CLOUDY    26  24  92 CALM      29.50S
WALDEN           N/A     23  16  74 S8        29.47F WCI  14
$$

COZ006>008-011-210100-
...WEST CENTRAL VALLEYS...

CITY           SKY/WX    TMP DP  RH WIND       PRES   REMARKS
GRAND JUNCTION CLOUDY    34  34 100 N5        29.52F WCI  30
MONTROSE       CLOUDY    38  21  50 VRB3      29.55F
EAGLE          MOCLDY    30  25  80 SW7       29.53  WCI  23
RIFLE          CLOUDY    35  29  78 W10       29.51F WCI  27
DELTA          MOCLDY    41  26  55 CALM      29.56S
NUCLA          MOCLDY    34  25  69 S3        29.57F
$$

COZ017>023-064>068-210100-
...SOUTHWEST COLORADO...

CITY           SKY/WX    TMP DP  RH WIND       PRES   REMARKS
DURANGO        CLOUDY    31  23  72 CALM      29.59F
CORTEZ         FLURRIES  33  30  88 MISG      29.58F
PAGOSA SPRINGS CLOUDY    29  21  70 SW5       29.61S WCI  24
TELLURIDE      CLOUDY    26  11  54 S10G17    29.55S WCI  15
WOLF CREEK PAS CLOUDY     9   9 100 SW22G37   29.54F WCI -11
$$

COZ009-010-012-014-032>034-037-058>063-210100-
...CENTRAL COLORADO...

CITY           SKY/WX    TMP DP  RH WIND       PRES   REMARKS
ASPEN          MOCLDY    23  19  85 CALM      29.49R
BUENA VISTA    FAIR      29  13  50 W14       29.47R WCI  18
COPPER MTN     LGT SNOW  18  10  73 MISG      29.46R VSB 1
BERTHOUD PASS  NOT AVBL
COTTONWOOD PAS FAIR      27   7  43 W14G22    29.46R WCI  15
GUNNISON       FAIR      22  16  78 NE7       29.53S WCI  13
KREMMLING      LGT SNOW  32  28  86 CALM      29.51R VSB 3/4
LEADVILLE      FAIR      17  12  80 N6        29.45S WCI   9
MONARCH PASS   CLOUDY    12   9  85 SW8G28    29.57R WCI   1
SALIDA         FAIR      32  14  47 SW8       29.56R WCI  25
SUNLIGHT       CLOUDY    16  14  93 MISG      29.53R VSB<1/4
WILKERSON PASS FAIR      18  12  79 SW16G26   29.45S WCI   3
$$

COZ069>075-210100-
...SAN LUIS VALLEY/SANGRE DE CRISTO MOUNTAINS...

CITY           SKY/WX    TMP DP  RH WIND       PRES   REMARKS
ALAMOSA        FAIR      25  13  60 SW9       29.52R WCI  15
LA VETA PASS   FAIR      18  12  79 NE30G51   29.46S WCI  -2
SAGUACHE       FAIR      19  18  93 N3        29.53F
$$

COZ035-036-038>040-210100-
...NORTHERN COLORADO FRONT RANGE...

CITY           SKY/WX    TMP DP  RH WIND       PRES   REMARKS
DENVER INTL AP FAIR      36  28  73 E7        29.39R
DMNS CITY PARK   N/A     44  17  34 NE9G15    29.38R
AURORA         PTCLDY    38  27  64 E8        29.39R
FRONT RANGE AP NOT AVBL
ERIE MUNI ARPT FAIR      40  28  63 E6        29.39R
BOULDER MUN AP FAIR      41  28  60 E5        29.38R
CENTENNIAL     FAIR      40  23  50 SE5       29.38R
BROOMFIELD     MOCLDY    41  28  60 NE9       29.38R
FORT COLLINS   FAIR      39  27  60 SE5       29.39R
LONGMONT       FAIR      43  29  59 CALM      29.40R
$$

COZ041-046-047-076>085-087-088-210100-
...PIKES PEAK/PALMER DIVIDE AND SOUTHERN FOOTHILLS...

CITY           SKY/WX    TMP DP  RH WIND       PRES   REMARKS
COLO. SPRINGS  MOCLDY    35  30  82 SE8       29.43R WCI  29
A. F. ACADEMY  CLOUDY    34  29  83 S10       29.41R WCI  26
SCHRIEVER AFB  NOT AVBL
ELLICOTT       CLOUDY   N/A N/A N/A SW6       29.42R
FALCON         CLOUDY    32  31  93 S7        29.43R WCI  26
FORT CARSON    FAIR      36  31  81 SE13      29.40R
LIMON          FAIR      35  32  88 S5        29.41R WCI  31
MONUMENT HILL  FAIR      32  28  86 S8        29.42R WCI  25
TRINIDAD       FAIR      38  18  44 W24       29.45S
$$

COZ042>045-048>051-090-091-210100-
...NORTHEAST COLORADO...

CITY           SKY/WX    TMP DP  RH WIND       PRES   REMARKS
GREELEY ARPT   FAIR      42  27  55 E5        29.39R
AKRON          CLOUDY    37  30  75 NW8       29.40R
BURLINGTON     FAIR      34  33  96 SW8       29.41R WCI  27
WRAY           NOT AVBL
STERLING       CLOUDY    37  30  75 N15       29.39R
HOLYOKE        CLOUDY    41  32  70 NW9       29.38R
FORT MORGAN    MOCLDY    39  30  68 CALM      29.40S
$$

COZ086-089-092>099-210100-
...SOUTHEAST COLORADO...

CITY           SKY/WX    TMP DP  RH WIND       PRES   REMARKS
PUEBLO         FAIR      39  32  76 S8        29.42R
LA JUNTA       FAIR      36  32  85 S8        29.44S
LAMAR          FAIR      35  31  85 W5        29.44R WCI  31
SPRINGFIELD      N/A     33  30  88 N8        29.46S WCI  26
$$




USA.gov is the U.S. government's official web portal to all federal, state and local government web resources and services.